Regional Weather Roundup
Issued by NWS

Home | Current Version | Previous Version | Text Only | Print | Product List | Glossary Off
Versions: 1 2 3 4 5 6 7 8 9 10 11 12 13 14 15 16 17 18 19 20 21 22 23 24 25 26 27 28 29 30 31 32 33 34 35 36 37 38 39 40 41 42 43 44 45 46 47 48

000
ASUS43 KDMX 102307
RWRIA

WEATHER ROUNDUP FOR IOWA
NATIONAL WEATHER SERVICE DES MOINES IA
600 PM CDT THU JUL 10 2014

NOTE: "FAIR" INDICATES FEW OR NO CLOUDS BELOW 12,000 FEET WITH NO
SIGNIFICANT WEATHER AND/OR OBSTRUCTIONS TO VISIBILITY.

* - THESE STATIONS ARE NOT NWS STATIONS...THUS NOT UNDER NWS
QUALITY CONTROL.  THEY ALSO DO NOT REPORT WEATHER SUCH
AS PRECIPITATION OR FOG.

IAZ001>003-012>014-020>022-031>034-043>046-110000-
   NORTHWEST IOWA

CITY           SKY/WX    TMP DP  RH WIND       PRES   REMARKS
CARROLL *      SUNNY     79  64  61 S13G20    30.02R HX  81
CHEROKEE *     CLOUDY    81  68  65 S16       29.97F HX  83
DENISON *      SUNNY     79  66  65 S12G20    29.99S HX  81
LE MARS *      SUNNY     82  66  57 SE16G24   29.93F HX  85
ORANGE CITY *  SUNNY     82  64  54 S14G21    29.96R HX  84
SHELDON *      MOSUNNY   79  64  61 S12G20    29.97R HX  81
SIOUX CITY     CLOUDY    84  66  54 S18G25    29.93F HX  86
SPENCER        CLOUDY    79  64  60 S14       29.99F HX  81
STORM LAKE *   SUNNY     79  66  65 S12G22    30.01F HX  81
$$

IAZ055>058-069>071-079>083-090>094-110000-
   SOUTHWEST IOWA

CITY           SKY/WX    TMP DP  RH WIND       PRES   REMARKS
ATLANTIC *     SUNNY     81  64  57 S17       30.00S HX  82
AUDUBON *      SUNNY     82  68  61 S12G17    30.03S HX  85
CLARINDA *     SUNNY     81  68  65 SE12G18   30.03S HX  83
COUNCIL BLFS * MOSUNNY   81  70  69 S21       29.98F HX  84
CRESTON *      SUNNY     79  61  53 S14G21    30.04F HX  80
HARLAN  *      SUNNY     81  66  61 S15       30.04S HX  83
LAMONI         SUNNY     80  58  46 SE13      30.06S HX  80
RED OAK *      MOSUNNY   82  68  61 S14       30.01S HX  85
SHENANDOAH *   MOSUNNY   82  68  61 SE17      30.00S HX  85
$$

IAZ047>049-059>061-072>074-084-110000-
   CENTRAL IOWA

CITY           SKY/WX    TMP DP  RH WIND       PRES   REMARKS
AMES           MOSUNNY   80  60  50 SE12      30.03F HX  81
ANKENY *       SUNNY     81  61  50 SE12G21   30.04F HX  81
CHARITON *     SUNNY     81  59  47 S10       30.07S HX  81
DES MOINES     MOSUNNY   83  57  41 S15G23    30.04F HX  82
GRINNELL*      SUNNY     81  57  44 SE10G18   30.08S HX  81
KNOXVILLE *    SUNNY     79  59  50 SE10G17   30.05S HX  80
MARSHALLTOWN   MOSUNNY   79  59  50 S16       30.06R HX  80
PELLA *        SUNNY     81  57  44 SE10      30.08R HX  81
PERRY *          N/A     81  61  50 S12G17    30.02F HX  81
$$

IAZ004>006-015-016-023>025-035-036-110000-
   NORTH CENTRAL IOWA

CITY           SKY/WX    TMP DP  RH WIND       PRES   REMARKS
ALGONA *       SUNNY     79  63  57 S14G22    30.02S HX  80
CLARION *      SUNNY     79  59  50 S14       30.04R HX  80
ESTHERVILLE    CLOUDY    78  62  57 S17       29.99F HX  80
FORT DODGE *   PTSUNNY   79  61  53 S12G17    30.04R HX  80
MASON CITY     PTSUNNY   79  57  46 S14       30.05F HX  80
FOREST CITY *  SUNNY     79  61  53 S13G18    30.03S HX  80
IOWA FALLS *     N/A     79  57  47 S16       30.06F HX  80
$$

IAZ007>011-017>019-026>030-037>042-050>054-066-110000-
   NORTHEAST IOWA

CITY           SKY/WX    TMP DP  RH WIND       PRES   REMARKS
CEDAR RAPIDS   SUNNY     78  58  49 S8        30.07F
CHARLES CITY * SUNNY     79  59  50 S13       30.07S HX  80
CLINTON *      MOSUNNY   81  61  50 SE9       30.13F HX  81
DECORAH *        N/A    N/A N/A N/A MISG        N/A
DUBUQUE        SUNNY     78  60  53 S10       30.10F
MONTICELLO *   SUNNY     79  59  50 S12       30.09S HX  80
OELWEIN *      SUNNY     79  63  57 S9G17     30.09R HX  80
WATERLOO       MOSUNNY   80  57  45 S12       30.06S HX  80
$$

IAZ064-065-067-068-078-110000-
   EAST CENTRAL IOWA

CITY           SKY/WX    TMP DP  RH WIND       PRES   REMARKS
DAVENPORT      CLOUDY    78  59  51 S8        30.10F
IOWA CITY      SUNNY     81  59  47 S12       30.09F HX  81
MT. PLEASANT * SUNNY     81  55  41 S8        30.09F HX  80
MUSCATINE *    SUNNY     81  57  44 S9        30.08F HX  81
QUAD CITIES    SUNNY     80  59  48 S6        30.09F HX  81
$$

IAZ062-063-075>077-085>089-095>099-110000-
   SOUTHEAST IOWA

CITY           SKY/WX    TMP DP  RH WIND       PRES   REMARKS
BURLINGTON     MOSUNNY   80  57  45 SE10      30.09F HX  80
FAIRFIELD *    SUNNY     81  55  41 S13       30.09S HX  80
FORT MADISON * MOSUNNY   82  55  39 SE7       30.10F HX  82
KEOKUK *       SUNNY     81  57  44 SE8       30.08F HX  81
OSKALOOSA *      N/A     81  57  44 SE10G18   30.07F HX  81
CENTERVILLE *  SUNNY     77  61  57 SE12      30.08F
OTTUMWA        SUNNY     78  59  51 SE10      30.07S
WASHINGTON *   SUNNY     81  57  44 S10       30.09S HX  81
$$

ABBREVIATIONS USED IN REMARKS
   TC - TEMPERATURES IN CELSIUS
  WCI - WIND CHILL INDEX
   HX - HEAT INDEX
  VSB - VISIBILITY
$$




USA.gov is the U.S. government's official web portal to all federal, state and local government web resources and services.